Perisher Valley Daily Summaries

January 2020
icon icon icon icon
date min to 9am anomaly max from 9am anomaly rain to 9am  
°C °C °C °C mm
Wed 01/01/2020 4.7 - 20.3 - 5.6  
Thu 02/01/2020 2.4 - 25.5 - 0.0  
Fri 03/01/2020 5.0 - 25.5 - 0.0  
Sat 04/01/2020 11.7 - 29.2 - 0.0  
Sun 05/01/2020 8.1 - 15.6 - 0.2  
Mon 06/01/2020 3.8 - 17.1 - 6.6  
Tue 07/01/2020 5.9 - 19.7 - 8.6  
Wed 08/01/2020 11.1 - 22.8 - 0.6  
Thu 09/01/2020 8.7 - 19.8 - 0.0  
Fri 10/01/2020 7.2 - 25.6 - 0.0  
Sat 11/01/2020 4.9 - 19.3 - 8.2  
Sun 12/01/2020 0.8 - 17.1 - 0.0  
Mon 13/01/2020 0.6 - 20.5 - 0.0  
Tue 14/01/2020 4.4 - 21.7 - 0.0  
Wed 15/01/2020 6.4 - 21.1 - 0.0  
Thu 16/01/2020 10.0 - 21.3 - 3.0  
Fri 17/01/2020 8.1 - 11.5 - 0.6  
Sat 18/01/2020 8.3 - 16.7 - 2.6  
Sun 19/01/2020 7.5 - 20.2 - 4.6  
Mon 20/01/2020 6.5 - 15.8 - 13.0  
Tue 21/01/2020 6.8 - 14.0 - 27.2  
Wed 22/01/2020 8.3 - 21.2 - 0.0  
Thu 23/01/2020 11.9 - 19.7 - 0.0  
Fri 24/01/2020 5.1 - 15.9 - 21.0  
Sat 25/01/2020 3.1 - 21.1 - 0.0  
Sun 26/01/2020 8.3 - 21.4 - 0.0  
Mon 27/01/2020 6.2 - 21 - 0.0  
 
January 2020 Average 6.5   20.0      
 
January 2020 Total         101.8 13 day(s)
 
Jan-Jan 2020 Total         101.8 13 day(s)
 
Highlights the coolest minimum or maximum temperature during the period.
 
Highlights the warmest minimum or maximum temperature during the period.
 
Highlights the highest daily rainfall during the period.
10  
A yellow cell indicates a probable monthly record for this site (sites with ≥ 10 years of records only). The number of years of records available for the relevant field for this month is indicated in black. See the station's climate page for full details.

Station Details

PERISHER VALLEY AWS
Snowy Mountains, New South Wales ACT
36.4069°S 148.4055°E 1738m AMSL
Commenced 2010

Site search


Enter a postcode or town name for local weather, or text to search the site. » advanced search

Healthy rainfall for many parts of Queensland

14:55 AEDT A monsoon-like synoptic pattern and humid winds from the Coral Sea are combining to generate welcome rain over a vast area of Queensland.

Help with Farmonline Weather